Weather History for Poughkeepsie, NY

Change the Weather History Date:

Wednesday, March 27, 2013

  Actual Average Record
Temperature  
Mean Temperature 38 °F 41 °F  
Max Temperature 54 °F 52 °F 77 °F (1949)
Min Temperature 22 °F 30 °F 12 °F (2001)
Degree Days  
Heating Degree Days 27 24  
Month to date heating degree days 773 781  
Since 1 July heating degree days 4894 5352  
Cooling Degree Days 0 0  
Month to date cooling degree days 0 0  
Year to date cooling degree days 0 0  
Moisture  
Dew Point 23 °F    
Average Humidity 62    
Maximum Humidity 96    
Minimum Humidity 28    
Precipitation  
Precipitation 0.00 in 0.12 in 0.92 in (1983)
Month to date precipitation 1.31 3.10  
Year to date precipitation 4.97 8.84  
Sea Level Pressure  
Sea Level Pressure 29.88 in    
Wind  
Wind Speed 5 mph (WNW)    
Max Wind Speed 20 mph    
Max Gust Speed 26 mph    
Visibility 10 miles    
Events      
T = Trace of Precipitation, MM = Missing Value Source: NWS Daily Summary

Daily Weather History Graph

Daily Weather History Graph

Search for Another Location

Airport:

Trip Planner

Search our weather history database for the weather conditions in past years. The results will help you decide how hot, cold, wet, or windy it might be!

Date:

Astronomy

Mar. 27, 2013 Rise Set
Actual Time 6:46 AM EDT 7:15 PM EDT
Civil Twilight 6:18 AM EDT 7:43 PM EDT
Nautical Twilight 5:45 AM EDT 8:16 PM EDT
Astronomical Twilight 5:12 AM EDT 8:50 PM EDT
Moon 7:57 PM EDT (3/27) 6:35 AM EDT (3/27)
Length of Visible Light 13h 24m
Length of Day
12h 29m
Full, 100% of the Moon is Illuminated
Mar 27
Full
Apr 3
Last Quarter
Apr 10
New
Apr 18
First Quarter
Apr 25
Full

Hourly Weather History & Observations

Time (EDT) Temp. Windchill Dew Point Humidity Pressure Visibility Wind Dir Wind Speed Gust Speed Precip Events Conditions
12:53 AM 28.9 °F - 23.0 °F 78% 29.85 in 10.0 mi Calm Calm - N/A   Clear
1:53 AM 27.0 °F - 23.0 °F 85% 29.86 in 10.0 mi Calm Calm - N/A   Clear
2:53 AM 26.1 °F - 21.9 °F 84% 29.86 in 10.0 mi Calm Calm - N/A   Clear
3:53 AM 25.0 °F - 21.9 °F 88% 29.85 in 10.0 mi Calm Calm - N/A   Clear
4:53 AM 24.1 °F - 21.9 °F 91% 29.85 in 10.0 mi Calm Calm - N/A   Clear
5:53 AM 24.1 °F - 21.0 °F 88% 29.86 in 10.0 mi Calm Calm - N/A   Clear
6:53 AM 23.0 °F - 21.0 °F 92% 29.88 in 8.0 mi Calm Calm - N/A   Clear
7:53 AM 28.0 °F - 23.0 °F 81% 29.89 in 10.0 mi Calm Calm - N/A   Clear
8:53 AM 36.0 °F - 27.0 °F 70% 29.90 in 10.0 mi Calm Calm - N/A   Clear
9:53 AM 42.1 °F 40.2 °F 26.1 °F 53% 29.89 in 10.0 mi WSW 3.5 mph - N/A   Clear
10:53 AM 46.9 °F - 26.1 °F 44% 29.88 in 10.0 mi NNW 6.9 mph - N/A   Clear
11:53 AM 50.0 °F - 24.1 °F 36% 29.87 in 10.0 mi West 10.4 mph 16.1 mph N/A   Mostly Cloudy
12:53 PM 48.9 °F - 24.1 °F 38% 29.86 in 10.0 mi West 5.8 mph - N/A   Mostly Cloudy
1:53 PM 48.9 °F - 23.0 °F 36% 29.85 in 10.0 mi North 13.8 mph 17.3 mph N/A   Overcast
2:11 PM 48.2 °F - 24.8 °F 40% 29.85 in 10.0 mi NE 10.4 mph - N/A   Overcast
2:53 PM 51.1 °F - 23.0 °F 33% 29.84 in 10.0 mi Variable 6.9 mph - N/A   Mostly Cloudy
3:53 PM 51.1 °F - 19.0 °F 28% 29.83 in 10.0 mi West 10.4 mph - N/A   Overcast
4:53 PM 51.1 °F - 21.9 °F 32% 29.84 in 10.0 mi NNW 10.4 mph - N/A   Overcast
5:53 PM 51.1 °F - 19.9 °F 29% 29.86 in 10.0 mi WNW 10.4 mph - N/A   Clear
6:53 PM 48.0 °F - 19.0 °F 32% 29.87 in 10.0 mi WNW 9.2 mph 18.4 mph N/A   Mostly Cloudy
7:53 PM 45.0 °F 40.1 °F 24.1 °F 44% 29.90 in 10.0 mi WNW 9.2 mph - N/A   Clear
8:53 PM 44.1 °F 40.8 °F 23.0 °F 43% 29.92 in 10.0 mi WNW 5.8 mph - N/A   Clear
9:53 PM 39.9 °F 35.8 °F 25.0 °F 55% 29.94 in 10.0 mi West 5.8 mph - N/A   Clear
10:53 PM 39.0 °F 34.8 °F 24.1 °F 55% 29.94 in 10.0 mi West 5.8 mph - N/A   Clear
11:53 PM 37.9 °F 34.4 °F 25.0 °F 60% 29.94 in 10.0 mi WNW 4.6 mph - N/A   Mostly Cloudy